Volver al catálogo

THORAD AGENA D DEB

ActivoPO
NORAD 4777·DEBRIS·🇺🇸 United States

Lanzado Apr 8, 1970 desde Vandenberg Space Force Base

Loading…

Próximos Pases

TLE

Source: Space-Track
1 04777U 70025DX  26228.30716463  .00000133  00000-0  14418-3 0  9997
2 04777  99.9435 346.2084 0005319 313.2508  73.2725 13.91889309815408

Sigue THORAD AGENA D DEB en tiempo real con AllMySat

Download on the App Store